This is the latest recevied weather packets stored in our database for station/object N2QDK-2. If no packets are shown the sender has not sent any weather packets the latest 10 day(s).
| Time | Temp. | Humidity | Pressure | Rain* | Wind** | Luminosity | Snow |
|---|---|---|---|---|---|---|---|
| 1777516516 | 7.22° C | 98% | 1007.4 hPa | 1.02 mm | - | - | - |
| 1777515916 | 7.22° C | 97% | 1007.5 hPa | 1.02 mm | - | - | - |
| 1777515316 | 7.22° C | 97% | 1007.4 hPa | 1.02 mm | - | - | - |
| 1777514716 | 7.22° C | 97% | 1007.3 hPa | 0.76 mm | - | - | - |
| 1777514116 | 7.22° C | 97% | 1007.2 hPa | 0.76 mm | - | - | - |
| 1777513516 | 7.22° C | 97% | 1007.2 hPa | 0.51 mm | - | - | - |
| 1777512916 | 7.78° C | 98% | 1007.1 hPa | 0.25 mm | - | - | - |
| 1777512316 | 7.22° C | 98% | 1007 hPa | 0 mm | - | - | - |
| 1777511716 | 7.22° C | 97% | 1006.9 hPa | 0 mm | - | - | - |
| 1777511116 | 7.22° C | 97% | 1006.6 hPa | 0.25 mm | - | - | - |
| 1777510516 | 7.22° C | 97% | 1006.4 hPa | 0.25 mm | - | - | - |
| 1777509916 | 7.22° C | 97% | 1006.5 hPa | 0.25 mm | - | - | - |
| 1777509318 | 7.22° C | 97% | 1006.6 hPa | 0.51 mm | - | - | - |
| 1777508717 | 7.22° C | 97% | 1006.4 hPa | 0.76 mm | - | - | - |
| 1777508118 | 7.22° C | 97% | 1006.2 hPa | 1.27 mm | - | - | - |
| 1777507517 | 7.22° C | 97% | 1006.3 hPa | 1.52 mm | - | - | - |
| 1777506917 | 7.22° C | 97% | 1006.3 hPa | 2.79 mm | - | - | - |
| 1777506318 | 7.22° C | 97% | 1006.3 hPa | 4.32 mm | - | - | - |
| 1777505718 | 7.22° C | 97% | 1005.5 hPa | 5.33 mm | - | - | - |
| 1777505118 | 7.22° C | 97% | 1006.4 hPa | 6.86 mm | - | - | - |
| 1777504518 | 7.22° C | 97% | 1006.6 hPa | 7.87 mm | - | - | - |
| 1777503917 | 6.67° C | 97% | 1006.9 hPa | 8.13 mm | - | - | - |
| 1777503317 | 7.22° C | 96% | 1007 hPa | 7.62 mm | - | - | - |
| 1777502717 | 7.22° C | 97% | 1006.8 hPa | 6.86 mm | - | - | - |
| 1777502118 | 7.22° C | 97% | 1006.6 hPa | 6.1 mm | - | - | - |
* Rain latest hour (hover to see other rain measurements)
** Current wind speed in m/s (hover to see current wind gust speed)